contact:dominique.lefevre@mio.osupytheas.fr, maurice.libes@osupytheas.fr, didier.mallarino@osupytheas.fr
Project:EMSO http://www.emso-fr.org/EMSO-France
Depth: 2436.0 m
Title:EMSO Ligure Ouest : Data MII capteur AQUADOPP
Date,Latitude,Longitude,X_East,Y_North,Z_Up,Amplitude_X,Amplitude_Y,Amplitude_Z,Batterie,SoundSpeed,Heading,Pitch,Roll,Pressure,TIS,Speed,Direction
, degrees North, degrees East, m.s-1, m.s-1,m.s-1, 1, 1, 1, Volt, m.s-1, degree, degree, degree, dbar, degree_C, m.s-1, degree
2022-04-21T00:04:03,42.805,6.029,-0.058,-0.001,-0.022,103.0,103.0,101.0,13.4,1505.2,331.9,-0.7,1.8,2470.754,13.28,0.058,269.0
2022-04-21T00:07:03,42.805,6.029,-0.018,-0.016,-0.009,103.0,103.0,102.0,13.4,1505.2,323.9,-0.7,1.8,2470.754,13.28,0.024,228.4
2022-04-21T00:10:03,42.805,6.029,-0.035,0.001,0.019,104.0,104.0,103.0,13.4,1505.2,327.6,-0.8,1.8,2470.807,13.28,0.035,271.6
2022-04-21T00:13:03,42.805,6.029,-0.028,-0.004,0.013,104.0,103.0,105.0,13.4,1505.2,329.2,-0.8,1.8,2470.746,13.28,0.028,261.9
2022-04-21T00:16:03,42.805,6.029,-0.043,0.012,-0.023,103.0,104.0,103.0,13.3,1505.2,326.3,-0.7,1.8,2470.806,13.28,0.044,285.6
2022-04-21T00:19:03,42.805,6.029,-0.028,-0.034,-0.047,104.0,104.0,102.0,13.3,1505.2,326.3,-0.7,1.8,2470.805,13.28,0.044,219.5
2022-04-21T00:22:03,42.805,6.029,-0.039,-0.005,-0.015,105.0,105.0,102.0,13.4,1505.2,331.1,-0.7,1.8,2470.705,13.28,0.039,262.7
2022-04-21T00:25:03,42.805,6.029,-0.033,-0.005,-0.011,106.0,103.0,102.0,13.3,1505.2,330.4,-0.7,1.8,2470.688,13.28,0.033,261.4
2022-04-21T00:28:03,42.805,6.029,-0.042,-0.001,-0.031,104.0,103.0,102.0,13.4,1505.2,324.8,-0.8,1.8,2470.677,13.28,0.042,268.6
2022-04-21T00:31:03,42.805,6.029,-0.048,-0.004,-0.007,104.0,104.0,102.0,13.3,1505.2,327.2,-0.8,1.8,2470.646,13.28,0.048,265.2
2022-04-21T00:34:03,42.805,6.029,-0.031,-0.015,-0.044,102.0,103.0,101.0,13.4,1505.2,326.3,-0.8,1.8,2470.678,13.28,0.034,244.2
2022-04-21T00:37:03,42.805,6.029,-0.034,-0.014,-0.014,103.0,103.0,102.0,13.4,1505.2,324.1,-0.8,1.8,2470.669,13.28,0.036,247.6
2022-04-21T00:40:03,42.805,6.029,-0.032,0.005,-0.013,104.0,104.0,101.0,13.4,1505.2,330.1,-0.7,1.8,2470.711,13.28,0.032,278.9
2022-04-21T00:43:03,42.805,6.029,-0.046,0.001,-0.021,103.0,104.0,102.0,13.3,1505.2,326.9,-0.7,1.8,2470.655,13.29,0.046,271.2
2022-04-21T00:46:03,42.805,6.029,-0.036,-0.014,-0.024,104.0,103.0,101.0,13.4,1505.2,326.7,-0.8,1.8,2470.692,13.28,0.038,248.8
2022-04-21T00:49:03,42.805,6.029,-0.029,-0.011,-0.064,107.0,104.0,101.0,13.3,1505.2,322.8,-0.8,1.8,2470.721,13.28,0.031,249.2
2022-04-21T00:52:03,42.805,6.029,-0.048,-0.027,-0.003,104.0,104.0,102.0,13.3,1505.2,331.3,-0.8,1.9,2470.686,13.28,0.055,240.6
2022-04-21T00:55:03,42.805,6.029,-0.046,-0.004,-0.001,105.0,102.0,102.0,13.4,1505.2,326.7,-0.8,1.8,2470.727,13.28,0.046,265.0
2022-04-21T00:58:03,42.805,6.029,-0.056,0.0,-0.061,104.0,102.0,101.0,13.4,1505.2,331.5,-0.7,1.8,2470.733,13.28,0.056,270.0
2022-04-21T01:04:03,42.805,6.029,-0.032,-0.022,-0.04,104.0,104.0,102.0,13.4,1505.2,322.8,-0.7,1.8,2470.775,13.28,0.038,235.5
2022-04-21T01:07:04,42.805,6.029,-0.036,-0.002,-0.002,103.0,104.0,101.0,13.4,1505.2,329.9,-0.8,1.8,2470.741,13.28,0.036,266.8
2022-04-21T01:10:03,42.805,6.029,-0.049,-0.001,-0.025,104.0,103.0,101.0,13.4,1505.2,325.6,-0.8,1.8,2470.694,13.28,0.049,268.8
2022-04-21T01:13:03,42.805,6.029,-0.043,-0.004,0.013,103.0,103.0,103.0,13.4,1505.2,327.6,-0.7,1.8,2470.739,13.28,0.043,264.7
2022-04-21T01:16:03,42.805,6.029,-0.035,-0.018,-0.036,103.0,103.0,101.0,13.4,1505.2,326.5,-0.7,1.8,2470.767,13.28,0.039,242.8
2022-04-21T01:19:03,42.805,6.029,-0.029,-0.022,-0.017,103.0,104.0,101.0,13.3,1505.2,322.9,-0.8,1.8,2470.74,13.28,0.036,232.8
2022-04-21T01:22:03,42.805,6.029,-0.035,-0.015,-0.021,103.0,102.0,101.0,13.4,1505.2,326.5,-0.8,1.8,2470.744,13.28,0.038,246.8
2022-04-21T01:25:03,42.805,6.029,-0.028,0.004,0.014,104.0,105.0,102.0,13.4,1505.2,330.0,-0.8,1.8,2470.754,13.28,0.028,278.1
2022-04-21T01:28:03,42.805,6.029,-0.026,-0.012,-0.035,105.0,103.0,101.0,13.4,1505.2,321.5,-0.7,1.8,2470.721,13.29,0.028,245.2
2022-04-21T01:31:03,42.805,6.029,-0.02,-0.001,-0.006,105.0,103.0,102.0,13.4,1505.2,328.6,-0.7,1.8,2470.747,13.29,0.02,267.1
2022-04-21T01:34:03,42.805,6.029,-0.029,-0.022,-0.023,103.0,104.0,102.0,13.4,1505.2,325.7,-0.8,1.8,2470.712,13.28,0.036,232.8
2022-04-21T01:37:03,42.805,6.029,-0.033,-0.033,-0.03,103.0,102.0,103.0,13.4,1505.2,330.5,-0.8,1.8,2470.718,13.28,0.046,225.0
2022-04-21T01:40:03,42.805,6.029,-0.029,-0.049,-0.021,103.0,103.0,102.0,13.4,1505.2,325.6,-0.8,1.8,2470.751,13.28,0.056,210.6
2022-04-21T01:43:03,42.805,6.029,-0.039,0.008,0.022,103.0,102.0,102.0,13.4,1505.2,324.5,-0.8,1.8,2470.69,13.28,0.039,281.6
2022-04-21T01:46:03,42.805,6.029,-0.038,-0.024,-0.01,103.0,103.0,101.0,13.4,1505.2,328.5,-0.8,1.9,2470.716,13.28,0.044,237.7
2022-04-21T01:49:03,42.805,6.029,-0.053,0.003,-0.021,103.0,104.0,102.0,13.4,1505.2,325.7,-0.7,1.8,2470.689,13.28,0.053,273.2
2022-04-21T01:52:03,42.805,6.029,-0.042,-0.014,0.012,105.0,103.0,101.0,13.4,1505.2,332.3,-0.8,1.8,2470.711,13.28,0.044,251.6
2022-04-21T01:55:03,42.805,6.029,-0.046,-0.001,-0.029,104.0,103.0,103.0,13.4,1505.2,325.3,-0.7,1.8,2470.664,13.29,0.046,268.8
2022-04-21T01:58:03,42.805,6.029,-0.02,-0.031,0.0,104.0,102.0,102.0,13.4,1505.2,327.9,-0.7,1.8,2470.657,13.28,0.036,212.8
2022-04-21T02:04:03,42.805,6.029,-0.051,-0.023,-0.029,104.0,103.0,103.0,13.3,1505.2,325.0,-0.8,1.8,2470.707,13.28,0.055,245.7
2022-04-21T02:07:03,42.805,6.029,-0.027,-0.017,0.015,104.0,102.0,102.0,13.3,1505.2,331.9,-0.7,1.8,2470.661,13.28,0.031,237.8
2022-04-21T02:10:03,42.805,6.029,-0.043,-0.002,-0.018,103.0,104.0,102.0,13.4,1505.2,327.4,-0.7,1.8,2470.721,13.28,0.043,267.3
2022-04-21T02:13:03,42.805,6.029,-0.047,-0.022,-0.035,103.0,103.0,102.0,13.3,1505.2,322.1,-0.8,1.8,2470.646,13.28,0.051,244.9
2022-04-21T02:16:03,42.805,6.029,-0.054,-0.013,0.005,103.0,102.0,102.0,13.4,1505.2,328.1,-0.8,1.9,2470.716,13.28,0.055,256.5
2022-04-21T02:19:03,42.805,6.029,-0.04,-0.021,-0.022,103.0,103.0,102.0,13.4,1505.2,322.1,-0.8,1.8,2470.698,13.28,0.045,242.3
2022-04-21T02:22:03,42.805,6.029,-0.042,-0.002,0.003,104.0,102.0,102.0,13.4,1505.2,328.3,-0.8,1.8,2470.644,13.28,0.042,267.3
2022-04-21T02:25:03,42.805,6.029,-0.037,0.0,0.004,105.0,104.0,103.0,13.4,1505.2,332.5,-0.8,1.8,2470.731,13.28,0.037,270.0
2022-04-21T02:28:03,42.805,6.029,-0.033,-0.003,0.002,104.0,106.0,103.0,13.3,1505.2,327.0,-0.7,1.8,2470.713,13.28,0.033,264.8
2022-04-21T02:31:03,42.805,6.029,-0.041,-0.01,-0.022,103.0,105.0,102.0,13.3,1505.2,332.1,-0.7,1.8,2470.721,13.28,0.042,256.3
2022-04-21T02:34:03,42.805,6.029,-0.035,-0.003,-0.011,105.0,103.0,103.0,13.4,1505.2,324.9,-0.8,1.9,2470.849,13.28,0.035,265.1
2022-04-21T02:37:03,42.805,6.029,-0.029,0.002,0.006,103.0,103.0,101.0,13.4,1505.2,327.9,-0.7,1.8,2470.952,13.28,0.029,273.9
2022-04-21T02:40:03,42.805,6.029,-0.043,0.0,-0.003,104.0,102.0,101.0,13.4,1505.2,322.5,-0.8,1.8,2471.029,13.28,0.043,270.0
2022-04-21T02:43:03,42.805,6.029,-0.056,-0.002,0.006,103.0,103.0,101.0,13.4,1505.2,325.7,-0.7,1.8,2471.203,13.28,0.056,268.0
2022-04-21T02:46:03,42.805,6.029,-0.039,-0.002,-0.033,104.0,103.0,101.0,13.3,1505.2,327.3,-0.7,1.8,2471.147,13.28,0.039,267.1
2022-04-21T02:49:03,42.805,6.029,-0.024,-0.029,-0.05,105.0,101.0,102.0,13.4,1505.2,331.9,-0.8,1.8,2471.063,13.28,0.037,219.6
2022-04-21T02:52:03,42.805,6.029,-0.033,-0.04,-0.016,103.0,104.0,102.0,13.4,1505.2,330.7,-0.8,1.8,2471.001,13.29,0.051,219.5
2022-04-21T02:55:03,42.805,6.029,-0.036,-0.019,-0.009,104.0,102.0,101.0,13.3,1505.2,331.5,-0.8,1.8,2470.861,13.28,0.04,242.2
2022-04-21T02:58:03,42.805,6.029,-0.015,0.004,-0.025,105.0,103.0,102.0,13.4,1505.2,332.6,-0.7,1.8,2471.111,13.29,0.015,284.9
2022-04-21T03:04:03,42.805,6.029,-0.018,-0.019,-0.001,105.0,102.0,102.0,13.4,1505.2,329.6,-0.8,1.8,2471.108,13.28,0.026,223.5
2022-04-21T03:07:03,42.805,6.029,-0.034,-0.029,-0.043,104.0,102.0,102.0,13.4,1505.2,331.5,-0.7,1.8,2471.007,13.28,0.044,229.5
2022-04-21T03:10:03,42.805,6.029,-0.047,-0.022,-0.03,102.0,103.0,101.0,13.4,1505.2,331.3,-0.7,1.8,2471.108,13.28,0.051,244.9
2022-04-21T03:13:03,42.805,6.029,-0.038,-0.012,-0.006,104.0,103.0,101.0,13.3,1505.2,326.4,-0.8,1.8,2470.855,13.28,0.039,252.5
2022-04-21T03:16:03,42.805,6.029,-0.073,0.002,-0.026,105.0,102.0,102.0,13.4,1505.2,327.1,-0.7,1.8,2470.868,13.28,0.073,271.6
2022-04-21T03:19:03,42.805,6.029,-0.028,-0.008,0.01,104.0,103.0,102.0,13.3,1505.2,322.5,-0.7,1.8,2470.632,13.28,0.029,254.1
2022-04-21T03:22:03,42.805,6.029,-0.025,-0.012,-0.019,103.0,102.0,102.0,13.3,1505.2,326.6,-0.7,1.8,2470.404,13.28,0.027,244.4
2022-04-21T03:25:03,42.805,6.029,-0.035,-0.016,-0.029,104.0,103.0,102.0,13.4,1505.2,325.4,-0.8,1.8,2470.382,13.28,0.038,245.4
2022-04-21T03:28:03,42.805,6.029,-0.031,0.002,-0.014,104.0,102.0,101.0,13.4,1505.2,324.4,-0.8,1.8,2470.376,13.28,0.031,273.7
2022-04-21T03:31:03,42.805,6.029,-0.041,-0.032,-0.028,104.0,104.0,103.0,13.4,1505.2,330.2,-0.7,1.8,2470.404,13.28,0.052,232.0
2022-04-21T03:34:03,42.805,6.029,-0.035,-0.022,-0.001,105.0,102.0,101.0,13.4,1505.2,324.8,-0.8,1.8,2470.449,13.28,0.041,237.8
2022-04-21T03:37:03,42.805,6.029,-0.047,-0.026,-0.028,104.0,103.0,101.0,13.4,1505.2,327.1,-0.8,1.8,2470.474,13.28,0.053,241.1
2022-04-21T03:40:03,42.805,6.029,-0.028,-0.031,0.01,103.0,103.0,101.0,13.3,1505.2,327.5,-0.7,1.8,2470.497,13.28,0.041,222.1
2022-04-21T03:43:03,42.805,6.029,-0.031,-0.01,0.01,104.0,103.0,101.0,13.3,1505.2,328.3,-0.8,1.8,2470.525,13.28,0.032,252.1
2022-04-21T03:46:03,42.805,6.029,-0.051,0.0,0.007,103.0,103.0,101.0,13.4,1505.2,325.9,-0.8,1.8,2470.559,13.28,0.051,270.0
2022-04-21T03:49:03,42.805,6.029,-0.046,-0.01,-0.02,104.0,104.0,101.0,13.3,1505.2,322.9,-0.8,1.8,2470.58,13.28,0.047,257.7
2022-04-21T03:52:03,42.805,6.029,-0.035,-0.023,-0.036,103.0,104.0,102.0,13.4,1505.2,326.7,-0.8,1.9,2470.569,13.28,0.041,236.7
2022-04-21T03:55:03,42.805,6.029,-0.034,-0.029,-0.004,104.0,103.0,101.0,13.4,1505.2,328.3,-0.7,1.8,2470.556,13.28,0.044,229.5
2022-04-21T03:58:03,42.805,6.029,-0.037,-0.01,-0.007,104.0,104.0,102.0,13.4,1505.2,321.9,-0.8,1.8,2470.62,13.28,0.038,254.9
2022-04-21T04:04:03,42.805,6.029,-0.045,-0.015,-0.015,103.0,102.0,102.0,13.4,1505.2,329.7,-0.8,1.8,2470.577,13.28,0.047,251.6
2022-04-21T04:07:03,42.805,6.029,-0.008,-0.022,-0.012,103.0,103.0,103.0,13.4,1505.2,328.9,-0.8,1.8,2470.589,13.28,0.023,200.0
2022-04-21T04:10:03,42.805,6.029,-0.013,-0.021,-0.023,103.0,104.0,104.0,13.3,1505.2,325.6,-0.8,1.8,2470.635,13.28,0.024,211.8
2022-04-21T04:13:03,42.805,6.029,-0.014,-0.026,-0.031,103.0,104.0,102.0,13.3,1505.2,326.1,-0.8,1.9,2470.558,13.28,0.029,208.3
2022-04-21T04:16:03,42.805,6.029,-0.041,-0.031,-0.023,104.0,103.0,101.0,13.4,1505.2,328.1,-0.8,1.8,2470.61,13.28,0.051,232.9
2022-04-21T04:19:03,42.805,6.029,-0.043,-0.031,-0.034,103.0,103.0,101.0,13.4,1505.2,332.5,-0.8,1.8,2470.599,13.28,0.053,234.2
2022-04-21T04:22:03,42.805,6.029,-0.032,-0.011,-0.037,104.0,100.0,102.0,13.4,1505.2,328.9,-0.8,1.8,2470.53,13.28,0.033,251.0
2022-04-21T04:25:03,42.805,6.029,-0.03,-0.025,-0.05,104.0,103.0,101.0,13.4,1505.2,327.3,-0.8,1.8,2470.566,13.28,0.039,230.2
2022-04-21T04:28:03,42.805,6.029,-0.046,-0.014,-0.032,104.0,104.0,102.0,13.4,1505.2,321.4,-0.7,1.8,2470.539,13.28,0.048,253.1
2022-04-21T04:31:03,42.805,6.029,-0.039,-0.017,-0.025,104.0,102.0,102.0,13.3,1505.2,325.4,-0.8,1.8,2470.574,13.28,0.042,246.5
2022-04-21T04:34:03,42.805,6.029,-0.042,-0.025,-0.015,103.0,103.0,101.0,13.4,1505.2,326.4,-0.7,1.8,2470.543,13.28,0.048,239.2
2022-04-21T04:37:03,42.805,6.029,-0.038,-0.008,-0.021,102.0,102.0,102.0,13.4,1505.2,332.1,-0.8,1.8,2470.517,13.28,0.038,258.1
2022-04-21T04:40:03,42.805,6.029,-0.022,-0.032,-0.008,104.0,103.0,102.0,13.3,1505.2,324.5,-0.7,1.8,2470.59,13.28,0.038,214.5
2022-04-21T04:43:03,42.805,6.029,-0.035,-0.02,0.004,103.0,104.0,104.0,13.4,1505.2,324.5,-0.8,1.8,2470.545,13.28,0.04,240.3
2022-04-21T04:46:03,42.805,6.029,-0.031,-0.004,-0.013,102.0,103.0,102.0,13.4,1505.2,332.1,-0.8,1.8,2470.545,13.28,0.031,262.7
2022-04-21T04:49:03,42.805,6.029,-0.04,-0.034,0.025,102.0,103.0,102.0,13.4,1505.2,325.9,-0.7,1.8,2470.541,13.28,0.052,229.6
2022-04-21T04:52:03,42.805,6.029,-0.067,-0.034,-0.057,103.0,103.0,101.0,13.4,1505.2,330.0,-0.8,1.8,2470.533,13.28,0.075,243.1
2022-04-21T04:55:03,42.805,6.029,-0.022,-0.026,-0.034,103.0,102.0,101.0,13.4,1505.2,332.3,-0.8,1.8,2470.538,13.28,0.034,220.2
2022-04-21T04:58:03,42.805,6.029,-0.027,-0.029,0.001,104.0,102.0,102.0,13.4,1505.2,328.7,-0.8,1.8,2470.506,13.28,0.039,223.0
2022-04-21T05:04:03,42.805,6.029,-0.021,-0.026,-0.037,103.0,102.0,102.0,13.4,1505.2,328.6,-0.7,1.8,2470.508,13.28,0.033,218.9
2022-04-21T05:07:03,42.805,6.029,-0.026,-0.029,-0.015,104.0,103.0,101.0,13.4,1505.2,324.4,-0.8,1.8,2470.491,13.28,0.038,221.9
2022-04-21T05:10:03,42.805,6.029,-0.018,-0.026,0.002,103.0,104.0,101.0,13.4,1505.2,322.6,-0.8,1.8,2470.512,13.28,0.031,214.7
2022-04-21T05:13:03,42.805,6.029,-0.026,-0.036,-0.029,103.0,103.0,103.0,13.3,1505.2,327.8,-0.8,1.8,2470.47,13.28,0.044,215.8
2022-04-21T05:16:03,42.805,6.029,-0.049,-0.022,-0.019,104.0,105.0,102.0,13.4,1505.2,326.5,-0.7,1.9,2470.507,13.28,0.053,245.8
2022-04-21T05:19:03,42.805,6.029,-0.043,-0.037,-0.029,105.0,103.0,102.0,13.4,1505.2,327.5,-0.8,1.8,2470.467,13.28,0.056,229.3
2022-04-21T05:22:03,42.805,6.029,-0.028,-0.037,-0.031,103.0,103.0,102.0,13.3,1505.2,328.0,-0.8,1.8,2470.474,13.28,0.046,217.1
2022-04-21T05:25:03,42.805,6.029,-0.042,-0.01,-0.031,103.0,104.0,102.0,13.4,1505.2,322.5,-0.7,1.8,2470.473,13.28,0.043,256.6
2022-04-21T05:28:03,42.805,6.029,-0.029,-0.053,-0.014,103.0,103.0,104.0,13.3,1505.2,329.7,-0.7,1.8,2470.469,13.28,0.06,208.7
2022-04-21T05:31:03,42.805,6.029,-0.032,-0.024,-0.047,102.0,102.0,101.0,13.3,1505.2,324.3,-0.7,1.8,2470.458,13.28,0.04,233.1
2022-04-21T05:34:03,42.805,6.029,-0.025,-0.017,-0.009,103.0,102.0,101.0,13.3,1505.2,331.3,-0.8,1.8,2470.481,13.28,0.03,235.8
2022-04-21T05:37:03,42.805,6.029,-0.045,-0.025,-0.032,105.0,103.0,101.0,13.4,1505.2,331.2,-0.8,1.8,2470.467,13.28,0.051,240.9
2022-04-21T05:40:03,42.805,6.029,-0.01,-0.029,-0.026,103.0,103.0,103.0,13.3,1505.2,325.4,-0.8,1.8,2470.465,13.28,0.03,199.0
2022-04-21T05:43:03,42.805,6.029,-0.023,-0.031,-0.032,103.0,104.0,101.0,13.4,1505.2,325.5,-0.7,1.8,2470.446,13.28,0.038,216.6
2022-04-21T05:46:03,42.805,6.029,-0.05,-0.012,0.003,104.0,102.0,102.0,13.4,1505.2,323.3,-0.8,1.8,2470.444,13.28,0.051,256.5
2022-04-21T05:49:03,42.805,6.029,-0.024,-0.021,-0.019,105.0,103.0,102.0,13.4,1505.2,329.8,-0.8,1.8,2470.474,13.28,0.031,228.8
2022-04-21T05:52:03,42.805,6.029,-0.064,-0.021,-0.033,103.0,103.0,102.0,13.3,1505.2,327.7,-0.8,1.8,2470.479,13.28,0.067,251.8
2022-04-21T05:55:03,42.805,6.029,-0.035,-0.013,-0.01,103.0,102.0,102.0,13.4,1505.2,322.9,-0.8,1.8,2470.489,13.28,0.037,249.6
2022-04-21T05:58:03,42.805,6.029,-0.048,-0.022,-0.009,104.0,105.0,101.0,13.4,1505.2,325.5,-0.8,1.8,2470.435,13.28,0.052,245.4
2022-04-21T06:04:03,42.805,6.029,-0.038,-0.015,-0.002,104.0,103.0,102.0,13.3,1505.2,323.2,-0.8,1.8,2470.45,13.28,0.04,248.5
2022-04-21T06:07:03,42.805,6.029,-0.043,-0.023,-0.038,103.0,103.0,102.0,13.3,1505.2,330.9,-0.7,1.8,2470.477,13.28,0.048,241.9
2022-04-21T06:10:03,42.805,6.029,-0.033,-0.022,-0.011,102.0,102.0,102.0,13.4,1505.2,322.1,-0.7,1.8,2470.5,13.28,0.039,236.3
2022-04-21T06:13:03,42.805,6.029,-0.039,-0.009,-0.019,103.0,102.0,102.0,13.3,1505.2,325.0,-0.7,1.8,2470.437,13.28,0.04,257.0
2022-04-21T06:16:03,42.805,6.029,-0.046,-0.016,-0.017,103.0,103.0,101.0,13.3,1505.2,331.4,-0.8,1.8,2470.478,13.28,0.048,250.8
2022-04-21T06:19:03,42.805,6.029,-0.059,-0.013,-0.014,104.0,104.0,100.0,13.4,1505.2,323.8,-0.8,1.8,2470.457,13.28,0.06,257.6
2022-04-21T06:22:03,42.805,6.029,-0.037,0.001,0.019,104.0,103.0,101.0,13.4,1505.2,325.7,-0.7,1.8,2470.462,13.28,0.037,271.5
2022-04-21T06:25:03,42.805,6.029,-0.043,-0.024,0.0,102.0,103.0,101.0,13.4,1505.2,325.0,-0.8,1.8,2470.508,13.28,0.049,240.8
2022-04-21T06:28:03,42.805,6.029,-0.042,-0.052,-0.023,104.0,103.0,102.0,13.4,1505.2,323.6,-0.7,1.8,2470.502,13.28,0.066,218.9
2022-04-21T06:31:03,42.805,6.029,-0.044,-0.037,-0.012,104.0,102.0,102.0,13.4,1505.2,328.3,-0.8,1.8,2470.494,13.28,0.057,229.9
2022-04-21T06:34:03,42.805,6.029,-0.039,-0.015,-0.039,103.0,103.0,102.0,13.3,1505.2,328.5,-0.8,1.9,2470.429,13.28,0.041,249.0
2022-04-21T06:37:03,42.805,6.029,-0.042,-0.015,0.025,103.0,102.0,102.0,13.3,1505.2,328.9,-0.8,1.8,2470.421,13.28,0.044,250.4
2022-04-21T06:40:03,42.805,6.029,-0.033,-0.026,0.004,102.0,103.0,102.0,13.3,1505.2,329.3,-0.8,1.8,2470.412,13.28,0.042,231.8
2022-04-21T06:43:03,42.805,6.029,-0.044,-0.025,-0.052,103.0,103.0,102.0,13.4,1505.2,327.7,-0.7,1.8,2470.413,13.28,0.05,240.4
2022-04-21T06:46:03,42.805,6.029,-0.021,-0.042,-0.03,103.0,104.0,101.0,13.4,1505.2,329.5,-0.7,1.8,2470.404,13.28,0.046,206.6
2022-04-21T06:49:03,42.805,6.029,-0.047,-0.041,-0.04,104.0,103.0,102.0,13.4,1505.2,324.6,-0.8,1.8,2470.444,13.28,0.062,228.9
2022-04-21T06:52:03,42.805,6.029,-0.031,-0.027,-0.038,105.0,103.0,102.0,13.4,1505.2,322.2,-0.7,1.8,2470.466,13.28,0.041,228.9
2022-04-21T06:55:03,42.805,6.029,-0.015,-0.03,-0.013,105.0,104.0,103.0,13.3,1505.2,330.7,-0.8,1.8,2470.425,13.28,0.033,206.6
2022-04-21T06:58:03,42.805,6.029,-0.032,-0.022,-0.001,102.0,104.0,103.0,13.3,1505.2,327.7,-0.7,1.8,2470.459,13.28,0.038,235.5
2022-04-21T07:04:03,42.805,6.029,-0.032,-0.037,-0.03,103.0,103.0,102.0,13.4,1505.2,332.1,-0.8,1.8,2470.456,13.28,0.048,220.9
2022-04-21T07:07:03,42.805,6.029,-0.053,-0.036,-0.045,103.0,103.0,101.0,13.4,1505.2,330.9,-0.8,1.8,2470.442,13.28,0.064,235.8
2022-04-21T07:10:03,42.805,6.029,-0.055,-0.022,-0.025,104.0,101.0,101.0,13.4,1505.2,328.6,-0.8,1.8,2470.453,13.28,0.059,248.2
2022-04-21T07:13:03,42.805,6.029,-0.058,-0.02,-0.042,103.0,103.0,101.0,13.4,1505.2,326.9,-0.8,1.8,2470.461,13.28,0.061,251.0
2022-04-21T07:16:03,42.805,6.029,-0.036,-0.028,-0.002,103.0,103.0,102.0,13.3,1505.2,325.1,-0.8,1.8,2470.519,13.28,0.045,232.1
2022-04-21T07:19:03,42.805,6.029,-0.046,-0.015,-0.004,103.0,103.0,101.0,13.4,1505.2,327.3,-0.8,1.8,2470.468,13.28,0.048,251.9
2022-04-21T07:22:03,42.805,6.029,-0.024,-0.036,-0.018,103.0,103.0,103.0,13.4,1505.2,326.6,-0.7,1.8,2470.472,13.28,0.043,213.7
2022-04-21T07:25:03,42.805,6.029,-0.052,-0.02,0.009,103.0,103.0,102.0,13.4,1505.2,331.4,-0.8,1.9,2470.473,13.28,0.055,249.0
2022-04-21T07:28:03,42.805,6.029,-0.055,-0.035,-0.003,100.0,105.0,102.0,13.4,1505.2,328.1,-0.7,1.9,2470.498,13.28,0.065,237.5
2022-04-21T07:31:03,42.805,6.029,-0.04,-0.038,-0.033,103.0,102.0,101.0,13.4,1505.2,323.3,-0.8,1.8,2470.456,13.28,0.055,226.5
2022-04-21T07:34:03,42.805,6.029,-0.021,-0.005,0.007,104.0,104.0,101.0,13.4,1505.2,325.4,-0.8,1.8,2470.514,13.28,0.021,256.6
2022-04-21T07:37:03,42.805,6.029,-0.036,-0.005,-0.012,103.0,102.0,101.0,13.3,1505.2,324.7,-0.8,1.8,2470.49,13.28,0.036,262.1
2022-04-21T07:40:03,42.805,6.029,-0.06,-0.022,-0.032,103.0,103.0,101.0,13.4,1505.2,330.3,-0.8,1.8,2470.49,13.28,0.063,249.9
2022-04-21T07:43:03,42.805,6.029,-0.049,-0.029,-0.029,103.0,103.0,101.0,13.4,1505.2,331.5,-0.7,1.8,2470.502,13.28,0.056,239.4
2022-04-21T07:46:03,42.805,6.029,-0.047,-0.031,-0.014,103.0,102.0,101.0,13.4,1505.2,324.0,-0.8,1.8,2470.528,13.28,0.056,236.6
2022-04-21T07:49:03,42.805,6.029,-0.05,-0.035,-0.04,104.0,102.0,101.0,13.4,1505.2,328.6,-0.7,1.8,2470.503,13.28,0.061,235.0
2022-04-21T07:52:03,42.805,6.029,-0.047,-0.013,-0.033,103.0,103.0,102.0,13.4,1505.2,332.1,-0.7,1.8,2470.532,13.28,0.048,254.5
2022-04-21T07:55:03,42.805,6.029,-0.05,-0.025,-0.031,104.0,105.0,102.0,13.4,1505.2,327.1,-0.8,1.8,2470.545,13.28,0.055,243.4
2022-04-21T07:58:03,42.805,6.029,-0.025,-0.034,-0.012,104.0,102.0,102.0,13.4,1505.2,324.2,-0.8,1.8,2470.538,13.28,0.042,216.3
2022-04-21T08:04:03,42.805,6.029,-0.038,-0.023,-0.016,105.0,104.0,103.0,13.3,1505.2,327.4,-0.8,1.8,2470.603,13.28,0.044,238.8
2022-04-21T08:07:03,42.805,6.029,-0.058,-0.015,-0.001,104.0,103.0,101.0,13.4,1505.2,330.9,-0.8,1.8,2470.811,13.28,0.059,255.5
2022-04-21T08:10:03,42.805,6.029,-0.045,0.002,0.018,105.0,102.0,102.0,13.3,1505.2,327.5,-0.7,1.8,2470.744,13.28,0.045,272.5
2022-04-21T08:13:03,42.805,6.029,-0.039,-0.023,-0.017,104.0,102.0,102.0,13.4,1505.2,330.0,-0.7,1.8,2470.531,13.28,0.045,239.5
2022-04-21T08:16:03,42.805,6.029,-0.041,-0.012,-0.033,104.0,102.0,101.0,13.4,1505.2,331.8,-0.7,1.8,2470.456,13.28,0.042,253.7
2022-04-21T08:19:03,42.805,6.029,-0.052,-0.026,-0.012,102.0,103.0,102.0,13.4,1505.2,331.5,-0.7,1.8,2470.472,13.28,0.058,243.4
2022-04-21T08:22:03,42.805,6.029,-0.038,-0.01,-0.02,103.0,104.0,102.0,13.4,1505.2,327.2,-0.7,1.8,2470.487,13.28,0.039,255.3
2022-04-21T08:25:03,42.805,6.029,-0.065,-0.002,0.01,102.0,103.0,101.0,13.4,1505.2,331.7,-0.8,1.8,2470.478,13.28,0.065,268.2
2022-04-21T08:28:03,42.805,6.029,-0.059,-0.017,0.0,105.0,101.0,102.0,13.3,1505.2,327.1,-0.7,1.8,2470.479,13.28,0.061,253.9
2022-04-21T08:31:03,42.805,6.029,-0.043,-0.003,-0.009,104.0,102.0,101.0,13.4,1505.2,326.0,-0.8,1.8,2470.521,13.28,0.043,266.0
2022-04-21T08:34:03,42.805,6.029,-0.046,-0.015,0.007,103.0,103.0,101.0,13.3,1505.2,323.1,-0.8,1.8,2470.522,13.28,0.048,251.9
2022-04-21T08:37:03,42.805,6.029,-0.018,-0.033,-0.005,104.0,102.0,101.0,13.4,1505.2,329.5,-0.7,1.8,2470.536,13.28,0.037,208.6
2022-04-21T08:40:03,42.805,6.029,-0.052,-0.021,-0.036,103.0,102.0,102.0,13.3,1505.2,327.2,-0.8,1.8,2470.5,13.28,0.056,248.0
2022-04-21T08:43:03,42.805,6.029,-0.057,-0.025,-0.017,104.0,103.0,102.0,13.4,1505.2,330.6,-0.7,1.8,2470.557,13.28,0.062,246.3
2022-04-21T08:46:03,42.805,6.029,-0.058,-0.032,-0.029,104.0,103.0,101.0,13.4,1505.2,331.6,-0.8,1.8,2470.565,13.28,0.066,241.1
2022-04-21T08:49:03,42.805,6.029,-0.058,-0.035,-0.024,104.0,103.0,101.0,13.4,1505.2,331.1,-0.8,1.8,2470.591,13.28,0.067,238.9
2022-04-21T08:52:03,42.805,6.029,-0.048,-0.029,-0.025,104.0,103.0,101.0,13.3,1505.2,331.3,-0.8,1.8,2470.586,13.28,0.056,238.9
2022-04-21T08:55:03,42.805,6.029,-0.047,-0.026,-0.035,103.0,104.0,102.0,13.4,1505.2,325.3,-0.7,1.8,2470.561,13.28,0.053,241.1
2022-04-21T08:58:03,42.805,6.029,-0.074,-0.026,-0.029,102.0,103.0,103.0,13.3,1505.2,326.5,-0.8,1.8,2470.566,13.28,0.078,250.6
2022-04-21T09:04:03,42.805,6.029,-0.039,-0.015,-0.002,103.0,103.0,102.0,13.4,1505.2,330.5,-0.8,1.8,2470.596,13.28,0.041,249.0
2022-04-21T09:07:03,42.805,6.029,-0.019,-0.033,-0.016,103.0,103.0,101.0,13.4,1505.2,328.0,-0.8,1.8,2470.595,13.28,0.038,209.9
2022-04-21T09:10:03,42.805,6.029,-0.044,-0.006,-0.003,104.0,103.0,104.0,13.3,1505.2,323.7,-0.8,1.8,2470.544,13.28,0.044,262.2
2022-04-21T09:13:03,42.805,6.029,-0.038,-0.028,-0.025,103.0,104.0,102.0,13.4,1505.2,322.1,-0.8,1.8,2470.578,13.28,0.047,233.6
2022-04-21T09:16:03,42.805,6.029,-0.032,-0.018,-0.02,103.0,102.0,103.0,13.3,1505.2,323.7,-0.8,1.8,2470.57,13.28,0.036,240.6
2022-04-21T09:19:03,42.805,6.029,-0.032,-0.037,-0.022,103.0,104.0,102.0,13.4,1505.2,323.7,-0.7,1.8,2470.571,13.28,0.048,220.9
2022-04-21T09:22:03,42.805,6.029,-0.034,-0.03,-0.034,103.0,103.0,102.0,13.4,1505.2,332.1,-0.8,1.8,2470.567,13.28,0.045,228.6
2022-04-21T09:25:03,42.805,6.029,-0.052,-0.018,-0.008,104.0,101.0,101.0,13.4,1505.2,329.3,-0.8,1.8,2470.558,13.28,0.055,250.9
2022-04-21T09:28:03,42.805,6.029,-0.04,-0.018,-0.001,104.0,103.0,101.0,13.3,1505.2,331.1,-0.7,1.8,2470.623,13.28,0.043,245.8
2022-04-21T09:31:03,42.805,6.029,-0.06,-0.038,-0.017,104.0,102.0,102.0,13.4,1505.2,326.1,-0.8,1.8,2470.587,13.28,0.071,237.7
2022-04-21T09:34:03,42.805,6.029,-0.06,-0.006,-0.024,104.0,101.0,102.0,13.4,1505.2,332.1,-0.8,1.8,2470.595,13.28,0.06,264.3
2022-04-21T09:37:03,42.805,6.029,-0.049,-0.028,-0.026,103.0,103.0,101.0,13.3,1505.2,324.1,-0.7,1.8,2470.603,13.28,0.056,240.3
2022-04-21T09:40:03,42.805,6.029,-0.039,-0.029,-0.016,103.0,104.0,102.0,13.4,1505.2,328.8,-0.8,1.8,2470.588,13.28,0.048,233.4
2022-04-21T09:43:03,42.805,6.029,-0.043,-0.02,-0.01,102.0,104.0,102.0,13.4,1505.2,325.3,-0.7,1.8,2470.615,13.28,0.047,245.1
2022-04-21T09:46:03,42.805,6.029,-0.065,-0.027,-0.017,103.0,103.0,102.0,13.4,1505.2,330.7,-0.8,1.8,2470.583,13.28,0.07,247.4
2022-04-21T09:49:03,42.805,6.029,-0.037,-0.025,0.016,102.0,104.0,102.0,13.4,1505.2,331.3,-0.7,1.8,2470.605,13.28,0.044,236.0